Wind_Speed
26 24 22 21 20 20 20 21 20 18 18 18 20 21 21 20 20 18 18 17 17 17 16 16 16 16 16 16 15 15 15 15 15 16 17 17 16 16 16 16 16 15 16 16
29 26 24 23 22 21 21 22 22 20 20 22 24 23 22 23 22 22 20 20 19 19 18 18 18 18 17 17 17 17 17 17 17 17 18 19 18 18 18 18 17 17 17 18
30 27 27 28 25 24 23 22 23 24 23 23 25 25 24 23 24 23 22 22 21 21 21 20 20 20 19 19 19 18 19 19 19 19 20 20 20 20 20 20 19 19 19 19
30 28 29 28 26 25 25 26 26 26 25 25 27 26 27 27 26 25 24 24 23 23 22 21 21 22 22 21 20 20 21 21 21 21 21 21 21 21 22 22 21 21 21 22
30 29 28 28 27 26 25 27 27 27 26 27 27 27 28 29 28 26 24 24 24 24 22 22 22 22 22 22 22 22 22 22 22 22 23 23 23 23 24 24 24 24 24 24
31 30 30 27 27 26 26 30 29 28 27 28 27 27 29 29 28 26 25 25 25 24 24 24 23 23 23 23 23 23 23 24 24 25 25 25 25 25 26 26 27 27 26 27
32 32 32 29 27 26 28 31 29 28 27 28 28 29 30 30 28 26 25 25 24 25 25 25 24 24 23 23 22 23 24 25 26 26 27 27 27 27 28 28 29 28 28 28
33 34 32 29 28 29 30 30 31 31 30 31 32 32 32 31 30 29 28 27 27 26 26 26 25 25 25 25 24 25 26 27 27 28 29 30 30 30 30 30 30 29 29 30
32 33 32 32 33 32 32 32 32 32 31 32 33 34 33 32 31 30 30 30 29 28 27 27 27 27 27 27 27 27 27 28 29 29 30 31 31 32 32 32 32 32 32 33
34 34 34 33 34 34 34 35 34 34 33 32 33 33 33 32 32 31 31 30 30 29 29 28 28 28 28 29 29 29 29 30 30 31 32 32 32 32 33 34 34 35 35 35
35 35 35 36 36 37 37 37 36 35 35 34 33 33 32 32 33 33 32 31 31 30 29 29 29 29 30 30 31 31 31 31 32 32 33 33 33 33 33 34 35 35 35 35
36 37 38 36 37 38 37 37 37 35 35 35 34 34 33 33 33 33 33 32 32 32 31 31 30 30 31 31 32 33 33 32 33 33 33 33 33 33 33 34 34 35 35 36
36 37 39 38 37 37 36 36 36 35 35 35 35 35 35 35 34 34 34 33 33 33 32 32 31 31 31 32 33 33 33 33 33 33 33 34 34 35 35 35 36 36 36 37
38 38 38 38 38 36 35 35 35 36 36 36 36 36 36 36 35 35 34 34 34 34 34 34 33 33 33 33 33 33 33 33 34 34 34 35 35 36 36 37 36 37 39 39
37 37 38 39 37 36 36 36 35 36 36 36 37 36 36 36 35 35 34 33 34 34 34 33 33 33 33 33 33 34 34 34 34 35 35 36 36 37 38 38 38 38 38 39
36 37 37 38 37 35 36 36 36 37 37 37 37 36 36 36 35 34 34 34 35 34 34 33 33 32 32 33 34 35 35 35 35 36 36 37 38 38 38 38 38 38 38 40
35 36 36 36 36 36 37 37 36 35 36 37 36 36 36 36 36 35 34 34 35 34 33 32 32 33 33 34 34 35 36 36 36 36 37 37 38 38 38 38 39 39 40 40
33 33 34 35 35 35 36 37 36 35 34 35 36 36 35 34 34 34 34 34 35 34 34 34 34 33 33 34 34 34 35 35 36 36 37 38 38 39 39 39 39 39 40 40
31 31 32 32 33 34 35 35 36 36 35 34 34 34 34 34 34 34 33 33 34 34 34 34 34 34 34 34 35 35 34 35 35 36 37 38 38 38 39 40 41 40 41 41
29 29 29 30 31 32 33 34 36 36 34 33 33 32 32 32 33 34 34 34 34 34 34 34 34 34 34 34 35 35 35 35 36 36 37 37 37 38 39 40 40 40 40 39
27 27 27 27 28 30 30 30 32 32 31 33 34 33 33 33 34 34 34 34 34 34 34 34 34 34 35 35 35 35 36 36 36 36 36 37 38 39 39 39 39 39 39 40
24 25 25 25 27 28 29 29 29 30 30 29 30 31 32 33 34 34 33 33 34 34 35 35 34 35 35 35 36 35 36 36 36 36 37 37 38 38 39 39 39 39 39 40
22 23 23 24 26 26 27 28 28 28 29 29 28 29 30 31 32 32 32 33 34 34 34 34 34 34 34 34 35 35 36 37 37 37 37 38 38 38 39 39 39 39 39 39
21 21 21 22 23 24 24 25 25 26 27 28 28 29 29 29 30 30 31 32 33 33 33 34 34 33 33 34 34 34 35 35 35 36 37 38 38 38 38 37 38 38 38 38
20 20 20 20 21 22 23 23 24 24 25 25 26 28 29 29 29 30 30 31 32 33 33 33 33 33 33 33 33 33 34 33 34 35 36 36 36 36 36 37 37 37 37 37
19 19 19 19 20 21 22 22 22 23 24 24 25 26 27 28 28 29 30 30 30 31 31 31 31 31 31 31 31 32 32 32 33 34 35 35 35 35 36 35 35 36 35 36
18 18 19 19 19 20 21 21 22 22 23 24 24 25 25 26 27 28 29 29 30 30 30 30 30 30 31 30 30 30 31 31 32 32 33 34 34 34 34 35 35 35 35 35
Wind_Direction
227 227 226 232 236 237 236 236 239 246 251 254 259 263 266 271 275 273 276 279 279 278 277 280 284 288 290 290 289 290 292 294 294 294 295 295 294 295 294 291 290 290 293 295
228 228 228 231 234 235 237 239 238 242 245 252 260 264 267 271 274 276 274 276 275 274 275 274 280 284 288 288 287 287 287 289 290 293 295 295 297 297 297 294 291 290 290 293
233 231 232 235 234 237 239 242 243 244 246 249 256 265 267 269 271 274 274 275 274 273 276 275 277 279 282 284 285 284 285 286 287 290 292 291 293 295 296 295 291 290 291 292
236 234 235 236 236 238 241 241 242 246 250 254 257 261 264 267 271 271 272 274 274 271 272 274 276 277 278 280 281 282 283 285 287 288 290 290 292 294 295 296 293 294 295 294
235 237 238 237 238 237 240 242 244 247 251 254 257 259 262 266 269 273 272 272 272 272 273 273 273 276 277 279 280 281 283 285 286 285 288 290 292 294 294 294 294 294 295 294
236 236 238 237 239 241 242 246 247 248 251 253 255 257 261 263 265 268 270 270 268 270 273 273 274 275 277 279 279 281 282 283 284 286 288 289 289 290 292 292 292 292 293 292
238 238 240 237 237 238 243 249 251 251 250 250 250 255 259 262 265 267 269 271 269 267 272 274 274 275 277 278 280 282 282 282 283 284 285 287 287 287 288 289 291 291 291 290
239 239 241 242 241 241 246 249 251 252 251 251 252 255 258 261 265 266 268 268 267 267 269 271 272 274 276 278 280 281 282 284 285 285 286 287 286 286 287 288 289 290 290 289
239 241 243 243 242 243 247 251 253 253 252 253 254 257 260 263 265 265 266 266 266 266 266 268 270 272 275 277 279 281 282 284 285 286 286 286 285 285 285 286 286 287 288 288
238 241 242 244 243 244 248 251 253 253 252 254 256 257 260 262 263 264 265 265 266 266 266 268 269 271 274 277 278 280 282 284 285 285 285 286 285 285 286 286 285 286 287 288
238 241 241 243 246 248 250 252 253 254 254 254 255 258 259 260 262 263 263 264 266 266 266 267 269 272 275 277 278 279 281 283 285 286 286 285 286 287 287 287 287 287 288 289
239 240 243 246 248 250 252 251 251 252 253 254 256 258 260 261 261 263 264 266 266 267 267 267 269 272 274 276 278 279 281 282 284 285 286 285 285 286 287 288 289 290 290 290
240 243 245 247 250 251 252 253 253 253 255 256 258 259 260 260 260 262 264 265 267 267 268 269 271 272 274 276 278 279 280 281 282 284 285 285 285 285 286 286 288 290 290 290
241 243 245 247 249 251 250 251 253 255 256 257 258 259 260 261 261 262 264 264 265 266 268 269 271 273 274 275 277 278 279 281 282 283 283 284 285 286 286 288 290 291 291 291
245 245 246 247 246 246 248 250 254 256 258 257 258 260 260 262 263 263 263 264 265 267 268 269 271 272 274 275 276 277 279 280 280 281 283 284 285 286 287 289 291 292 293 295
247 246 247 248 247 248 248 250 254 256 257 258 258 259 261 262 262 263 264 265 265 266 268 269 271 271 272 274 275 276 278 278 279 282 283 285 286 287 289 290 291 292 294 296
247 248 248 250 249 248 248 251 254 256 257 258 259 260 261 261 262 264 265 265 265 265 267 268 270 271 272 274 276 277 278 278 279 282 285 286 287 288 290 291 292 293 295 295
247 248 250 251 251 250 250 251 253 255 257 259 259 259 260 261 261 263 265 265 265 266 268 270 272 272 274 276 277 279 279 280 282 283 285 286 287 288 289 290 292 292 293 294
247 248 250 251 251 252 251 251 254 255 256 258 259 259 260 260 261 263 264 264 265 267 269 271 274 275 276 278 279 279 280 281 281 281 283 285 286 287 288 290 291 291 292 293
249 250 250 251 252 252 253 253 253 255 255 257 258 258 259 260 261 263 264 265 266 268 270 272 274 276 277 278 279 280 281 282 282 282 283 285 286 288 289 290 291 292 292 293
249 249 250 252 252 251 252 253 254 254 256 256 256 257 258 259 261 263 265 266 268 269 271 274 275 276 277 278 279 280 282 283 285 285 285 285 287 288 289 290 291 293 294 295
250 250 250 253 255 254 253 255 257 256 257 257 255 256 258 260 262 263 265 267 268 269 271 274 276 277 277 278 280 281 283 284 284 285 285 285 286 287 288 290 292 294 294 295
252 254 254 255 255 256 256 256 257 257 257 258 259 260 260 261 262 263 265 266 268 269 271 274 277 278 279 280 281 281 282 283 283 285 286 286 286 286 288 290 292 293 295 296
254 255 255 255 256 257 258 258 258 258 258 259 261 263 264 263 264 265 266 267 269 272 274 276 277 279 280 280 281 281 282 283 283 285 287 287 287 288 290 292 293 294 296 296
254 255 255 257 259 259 259 259 259 259 259 260 262 263 266 267 268 269 270 271 272 273 274 276 277 278 279 280 281 281 282 282 283 285 287 289 289 290 292 294 294 295 296 296
254 254 255 256 258 258 258 259 260 260 260 261 262 264 266 269 271 272 274 275 275 276 276 276 277 278 279 280 281 282 283 285 286 288 290 291 291 291 292 293 293 294 296 297
253 253 255 256 257 259 260 261 263 264 266 267 267 268 269 271 272 273 276 277 278 278 279 279 280 280 281 281 283 284 285 287 287 288 290 291 292 292 292 292 294 295 297 298
Height
5883 5887 5890 5893 5896 5898 5901 5903 5904 5906 5906 5906 5905 5905 5905 5905 5905 5905 5905 5905 5905 5904 5904 5902 5902 5902 5901 5901 5901 5900 5900 5900 5899 5898 5898 5897 5896 5895 5894 5893 5892 5891 5890 5889
5876 5881 5884 5887 5890 5892 5895 5897 5899 5901 5901 5901 5900 5900 5900 5900 5900 5901 5901 5901 5900 5900 5899 5899 5899 5899 5898 5898 5897 5897 5896 5896 5895 5895 5894 5893 5892 5891 5890 5889 5888 5887 5886 5885
5870 5874 5877 5880 5884 5887 5889 5892 5893 5894 5895 5895 5895 5894 5894 5895 5895 5895 5896 5896 5896 5895 5895 5895 5895 5894 5894 5894 5893 5893 5892 5892 5891 5891 5890 5889 5888 5887 5885 5884 5883 5882 5881 5879
5863 5867 5869 5876 5878 5881 5883 5885 5886 5887 5888 5889 5889 5889 5889 5889 5889 5890 5890 5890 5890 5889 5889 5890 5890 5889 5889 5889 5889 5888 5888 5887 5887 5886 5885 5884 5883 5882 5880 5879 5878 5876 5875 5874
5856 5859 5863 5868 5871 5873 5876 5876 5878 5880 5881 5882 5882 5882 5882 5882 5882 5883 5884 5884 5884 5883 5883 5884 5884 5884 5884 5884 5883 5883 5883 5882 5882 5881 5880 5879 5878 5876 5875 5874 5872 5871 5870 5869
5849 5852 5856 5862 5864 5866 5868 5868 5870 5872 5873 5874 5875 5875 5875 5874 5875 5877 5877 5877 5877 5878 5878 5878 5879 5879 5879 5878 5877 5877 5877 5876 5876 5875 5874 5873 5872 5870 5869 5868 5866 5865 5864 5863
5841 5844 5847 5853 5855 5857 5861 5861 5863 5864 5866 5866 5867 5868 5867 5866 5867 5869 5870 5870 5870 5871 5872 5872 5873 5873 5873 5872 5871 5871 5871 5870 5869 5868 5867 5866 5865 5863 5862 5861 5859 5858 5857 5856
5834 5836 5842 5845 5846 5849 5850 5852 5853 5855 5857 5857 5858 5859 5860 5860 5860 5862 5863 5864 5864 5864 5866 5866 5866 5866 5866 5866 5866 5865 5864 5863 5862 5861 5859 5858 5857 5856 5854 5853 5852 5851 5849 5848
5826 5830 5833 5835 5838 5839 5841 5843 5845 5847 5848 5849 5850 5851 5852 5853 5853 5855 5855 5856 5857 5857 5859 5859 5859 5859 5860 5859 5859 5858 5857 5856 5854 5853 5851 5850 5848 5847 5846 5845 5844 5842 5841 5840
5819 5821 5824 5826 5828 5830 5832 5834 5836 5838 5839 5840 5842 5843 5844 5845 5846 5847 5848 5849 5850 5850 5851 5852 5852 5852 5852 5852 5851 5850 5849 5848 5846 5845 5843 5842 5840 5839 5837 5836 5835 5833 5832 5830
5810 5813 5815 5816 5819 5821 5822 5825 5827 5829 5830 5832 5833 5835 5836 5837 5837 5838 5839 5841 5841 5842 5843 5843 5844 5844 5844 5844 5843 5842 5841 5839 5838 5836 5835 5833 5832 5830 5829 5827 5825 5824 5822 5820
5801 5803 5806 5808 5809 5812 5814 5816 5818 5820 5821 5823 5824 5826 5827 5828 5829 5830 5831 5832 5833 5834 5834 5835 5835 5835 5835 5834 5834 5833 5831 5830 5829 5828 5826 5825 5823 5822 5820 5818 5816 5814 5812 5809
5791 5794 5796 5798 5801 5803 5805 5807 5809 5810 5812 5814 5816 5817 5818 5819 5820 5821 5822 5823 5824 5825 5825 5825 5825 5826 5826 5825 5824 5823 5822 5821 5820 5818 5817 5815 5814 5812 5811 5809 5807 5805 5802 5800
5781 5784 5787 5790 5792 5794 5797 5798 5800 5801 5802 5805 5806 5807 5808 5810 5811 5812 5813 5814 5814 5815 5815 5816 5816 5816 5816 5815 5814 5813 5812 5811 5810 5809 5807 5806 5804 5803 5801 5800 5797 5795 5792 5789
5773 5776 5778 5780 5783 5785 5787 5790 5791 5791 5792 5795 5796 5797 5799 5800 5801 5802 5803 5804 5805 5805 5805 5806 5806 5806 5805 5805 5804 5803 5802 5801 5800 5799 5797 5796 5794 5792 5790 5788 5786 5784 5782 5778
5764 5766 5768 5770 5774 5776 5778 5780 5782 5783 5784 5785 5786 5788 5789 5791 5792 5793 5794 5794 5795 5796 5796 5796 5796 5796 5796 5795 5794 5793 5792 5791 5790 5789 5787 5786 5784 5782 5780 5778 5776 5773 5770 5767
5755 5757 5759 5761 5765 5767 5769 5771 5772 5773 5774 5775 5777 5779 5780 5781 5782 5783 5784 5785 5785 5786 5787 5787 5787 5786 5786 5785 5784 5783 5782 5781 5780 5779 5777 5775 5773 5771 5769 5767 5765 5762 5760 5757
5746 5748 5751 5753 5755 5757 5759 5761 5762 5764 5765 5766 5768 5769 5770 5771 5773 5774 5774 5775 5776 5776 5777 5777 5777 5776 5776 5775 5774 5773 5772 5771 5769 5768 5767 5765 5763 5761 5759 5757 5754 5751 5748 5745
5737 5740 5742 5744 5746 5748 5750 5751 5752 5754 5756 5757 5758 5760 5761 5762 5763 5764 5764 5765 5766 5767 5767 5767 5767 5766 5766 5765 5764 5763 5762 5760 5759 5758 5757 5755 5753 5751 5748 5746 5743 5740 5737 5734
5730 5732 5734 5736 5738 5739 5741 5742 5744 5745 5747 5748 5749 5750 5751 5753 5754 5755 5755 5756 5757 5757 5757 5757 5757 5756 5756 5755 5754 5753 5752 5750 5749 5748 5746 5744 5742 5740 5737 5735 5732 5729 5726 5723
5723 5724 5726 5728 5729 5730 5732 5733 5734 5736 5738 5738 5740 5741 5742 5743 5745 5745 5746 5746 5747 5747 5747 5747 5747 5747 5746 5745 5744 5743 5741 5740 5738 5736 5735 5733 5731 5729 5726 5724 5721 5718 5715 5712
5715 5717 5718 5719 5721 5722 5723 5725 5726 5728 5729 5729 5731 5732 5733 5734 5735 5736 5736 5737 5737 5737 5737 5737 5737 5736 5736 5735 5734 5733 5731 5730 5728 5726 5724 5722 5720 5718 5716 5713 5711 5708 5704 5701
5709 5710 5712 5713 5714 5715 5716 5718 5719 5720 5721 5722 5723 5724 5724 5725 5725 5726 5727 5727 5727 5727 5727 5727 5727 5726 5725 5724 5723 5722 5721 5719 5717 5715 5713 5711 5710 5708 5705 5703 5700 5697 5694 5690
5703 5704 5706 5707 5708 5708 5709 5711 5712 5712 5713 5714 5715 5715 5716 5716 5716 5716 5717 5717 5717 5717 5717 5717 5717 5716 5715 5714 5713 5711 5710 5709 5707 5705 5703 5701 5699 5697 5694 5692 5689 5686 5683 5679
5698 5699 5700 5700 5701 5702 5703 5704 5705 5706 5706 5707 5707 5707 5707 5707 5707 5708 5708 5708 5708 5707 5707 5707 5706 5706 5705 5704 5703 5701 5700 5698 5697 5695 5693 5691 5689 5686 5684 5681 5678 5675 5672 5669
5692 5693 5694 5695 5695 5696 5696 5697 5698 5698 5698 5698 5699 5700 5699 5699 5699 5699 5699 5699 5698 5698 5697 5697 5696 5696 5695 5694 5693 5692 5690 5689 5687 5685 5683 5681 5678 5676 5673 5670 5667 5664 5661 5658
5687 5688 5688 5689 5689 5690 5690 5691 5691 5692 5692 5692 5692 5692 5692 5692 5692 5691 5691 5690 5690 5689 5688 5688 5687 5686 5686 5685 5684 5683 5681 5679 5678 5676 5673 5671 5668 5666 5663 5660 5657 5654 5651 5647